User: anonymous   Login
Location: Newark
(41.6500°N, 71.4833°W)
Time: 09:10:05
(UTC+00:00)
Language:

Explorer 7 - Orbit

View from above orbital plane
View from above orbital plane
View from above satellite
View from above satellite

Ground track
Ground track

The orbit data is extracted from the following two-line orbital elements,

1    22U 59009A   20027.13619376 -.00000093  00000-0  16678-4 0  9999
2    22  50.2843  49.7697 0139646  75.0207 286.6151 14.95026718204031
Epoch (UTC): 27 January 2020 03:16:07
Eccentricity: 0.0139646
inclination: 50.2843°
perigee height: 485 km
apogee height: 679 km
right ascension of ascending node: 49.7697°
argument of perigee: 75.0207°
revolutions per day: 14.95026718
mean anomaly at epoch: 286.6151°
orbit number at epoch: 20403

The dashed part of the orbit path shows where the satellite is in the earth's shadow,  

DLR